Location: Asheville, NC
(35.6000°N, 82.5500°W)
Time: 06:23:17
(UTC-05:00)

LilacSat-2 - Pass Details

Date: 08 January 2018
Orbit: 515 x 537 km, 97.5° (Epoch: 19 January)

Event Time Altitude Azimuth Distance (km) Brightness Sun altitude
Rises 06:54:57 0° 3° (N) 2,665 ? -9.3°
Reaches altitude 10° 06:57:08 10° 356° (N) 1,768 ? -8.8°
Maximum altitude 07:00:43 41° 286° (WNW) 767 ? -8.2°
Drops below altitude 10° 07:04:16 10° 215° (SW) 1,744 ? -7.5°
Sets 07:06:26 0° 208° (SSW) 2,623 ? -7.1°
